N2IVN Weather Reports


Display with metric or nautical units.
time (UTC)temp
F
wind
direction
speed
MPH
gust
MPH
rain 1hr
in
rain 24hr
in
rain mn
in
humidity
%
barometer
mb
20260502230505 60 338 0.0 0.0 0.00 0.00 0.00 47 1010.6
20260502230005 60 338 0.0 0.0 0.00 0.00 0.00 46 1010.4
20260502225506 60 338 0.0 0.0 0.00 0.00 0.00 46 1010.4
20260502225005 61 338 0.0 6.0 0.00 0.00 0.00 45 1010.4
20260502224005 62 341 0.0 7.0 0.00 0.00 0.00 45 1010.4
20260502223005 62 338 0.0 0.0 0.00 0.00 0.00 44 1010.3
20260502222506 63 338 1.0 10.0 0.00 0.00 0.00 44 1010.3
20260502222005 63 339 0.0 3.0 0.00 0.00 0.00 44 1010.1
20260502221505 64 338 0.0 5.0 0.00 0.00 0.00 44 1010.2
20260502221005 63 338 0.0 0.0 0.00 0.00 0.00 44 1010.2
20260502220505 63 338 1.0 3.0 0.00 0.00 0.00 44 1010.2
20260502220005 64 0 0.0 2.0 0.00 0.00 0.00 43 1010.3
20260502215506 64 338 1.0 7.0 0.00 0.00 0.00 43 1010.3
20260502215005 64 0 0.0 0.0 0.00 0.00 0.00 43 1010.2
20260502214005 65 0 0.0 7.0 0.00 0.00 0.00 42 1010.2
20260502213005 64 338 1.0 10.0 0.00 0.00 0.00 42 1010.3
20260502212505 64 341 1.0 9.0 0.00 0.00 0.00 42 1009.9
20260502212005 65 349 2.0 7.0 0.00 0.00 0.00 42 1009.8
20260502211505 65 0 0.0 8.0 0.00 0.00 0.00 42 1009.9
20260502211005 66 353 3.0 12.0 0.00 0.00 0.00 40 1009.9
20260502210505 66 352 1.0 12.0 0.00 0.00 0.00 41 1010.0
20260502210005 67 349 0.0 7.0 0.00 0.00 0.00 41 1009.9
20260502205505 68 0 0.0 9.0 0.00 0.00 0.00 41 1010.0
20260502205005 68 338 0.0 8.0 0.00 0.00 0.00 41 1009.9
20260502204505 68 338 1.0 7.0 0.00 0.00 0.00 41 1009.8
20260502204005 68 338 0.0 5.0 0.00 0.00 0.00 40 1009.8
20260502203505 69 338 2.0 12.0 0.00 0.00 0.00 40 1009.8
20260502203006 70 0 1.0 3.0 0.00 0.00 0.00 41 1009.8
20260502202505 70 315 0.0 0.0 0.00 0.00 0.00 40 1009.8
20260502202005 69 338 3.0 10.0 0.00 0.00 0.00 41 1009.8
20260502201505 69 338 0.0 12.0 0.00 0.00 0.00 40 1009.8
20260502200506 70 345 1.0 7.0 0.00 0.00 0.00 38 1010.1
20260502200005 72 14 2.0 7.0 0.00 0.00 0.00 38 1010.2
20260502195505 73 353 3.0 14.0 0.00 0.00 0.00 40 1010.2
20260502194505 71 315 0.0 6.0 0.00 0.00 0.00 43 1010.3
20260502194005 69 338 0.0 6.0 0.00 0.00 0.00 43 1010.4
20260502193505 69 343 0.0 0.0 0.00 0.00 0.00 42 1010.3
20260502193005 69 270 0.0 0.0 0.00 0.00 0.00 43 1010.4
20260502192505 69 342 1.0 9.0 0.00 0.00 0.00 42 1010.7
20260502192005 71 346 6.0 14.0 0.00 0.00 0.00 41 1010.6
20260502191505 71 340 1.0 10.0 0.00 0.00 0.00 42 1010.7
20260502191005 73 347 0.0 13.0 0.00 0.00 0.00 41 1010.8
20260502190505 74 338 0.0 5.0 0.00 0.00 0.00 40 1010.8
20260502185005 76 338 0.0 2.0 0.00 0.00 0.00 42 1011.2
20260502184506 76 338 0.0 0.0 0.00 0.00 0.00 42 1011.2
20260502184005 76 338 2.0 7.0 0.00 0.00 0.00 40 1011.3
20260502182505 76 315 0.0 0.0 0.00 0.00 0.00 44 1011.7
20260502182004 76 315 0.0 0.0 0.00 0.00 0.00 45 1011.5
20260502181505 75 315 0.0 0.0 0.00 0.00 0.00 45 1011.6
20260502181005 75 29 1.0 5.0 0.00 0.00 0.00 46 1011.7
20260502180505 74 338 0.0 3.0 0.00 0.00 0.00 48 1011.6
20260502170506 69 354 1.0 6.0 0.00 0.00 0.00 52 1011.7
20260502164005 69 5 2.0 6.0 0.00 0.00 0.00 52 1012.1
20260502163005 67 344 0.0 5.0 0.00 0.00 0.00 57 1012.1
20260502162006 66 338 0.0 0.0 0.00 0.00 0.00 58 1012.3
20260502161504 66 350 2.0 7.0 0.00 0.00 0.00 58 1012.4
20260502160506 66 338 1.0 2.0 0.00 0.00 0.00 58 1012.6
20260502152004 65 349 1.0 6.0 0.00 0.00 0.00 60 1012.4
20260502151005 65 338 0.0 2.0 0.00 0.00 0.00 61 1012.4
20260502150505 65 0 0.0 0.0 0.00 0.00 0.00 61 1012.4
20260502130504 58 0 0.0 2.0 0.00 0.00 0.00 71 1012.6
20260502123505 59 315 0.0 0.0 0.00 0.00 0.00 72 1012.7
20260502123004 58 292 0.0 0.0 0.00 0.00 0.00 74 1012.7
20260502122504 58 292 0.0 0.0 0.00 0.00 0.00 75 1012.6
20260502122005 57 292 0.0 0.0 0.00 0.00 0.00 76 1012.7
20260502121505 57 338 0.0 0.0 0.00 0.00 0.00 77 1012.7
20260502121005 56 315 0.0 3.0 0.00 0.00 0.00 78 1012.9
20260502120504 56 270 0.0 0.0 0.00 0.00 0.00 79 1012.7
20260502115508 56 270 0.0 0.0 0.00 0.00 0.00 80 1012.5
20260502114505 55 180 0.0 0.0 0.00 0.00 0.00 82 1012.4
20260502114004 55 180 0.0 0.0 0.00 0.00 0.00 83 1012.3
20260502113005 54 180 0.0 0.0 0.00 0.00 0.00 84 1012.4
20260502112005 51 180 0.0 0.0 0.00 0.00 0.00 86 1012.4
20260502111504 50 180 0.0 0.0 0.00 0.00 0.00 86 1012.5
20260502111004 50 180 0.0 0.0 0.00 0.00 0.00 87 1012.5
20260502110504 49 180 0.0 0.0 0.00 0.00 0.00 87 1012.5
20260502110005 49 180 0.0 0.0 0.00 0.00 0.00 87 1012.4
20260502105505 48 180 0.0 0.0 0.00 0.00 0.00 87 1012.3
20260502105004 48 180 0.0 0.0 0.00 0.00 0.00 86 1012.4
20260502104506 47 180 0.0 0.0 0.00 0.00 0.00 86 1012.3
20260502104005 47 180 0.0 0.0 0.00 0.00 0.00 86 1012.2
20260502103505 47 180 0.0 0.0 0.00 0.00 0.00 86 1012.1
20260502103005 47 180 0.0 0.0 0.00 0.00 0.00 86 1012.0
20260502102504 47 180 0.0 0.0 0.00 0.00 0.00 86 1011.9
20260502102004 47 180 0.0 0.0 0.00 0.00 0.00 86 1011.9
20260502101505 47 180 0.0 0.0 0.00 0.00 0.00 86 1012.0
20260502101005 47 180 0.0 0.0 0.00 0.00 0.00 86 1012.0
20260502100505 47 180 0.0 0.0 0.00 0.00 0.00 86 1011.7
20260502091505 49 202 0.0 0.0 0.00 0.00 0.00 84 1011.6
20260502091006 49 202 0.0 0.0 0.00 0.00 0.00 84 1011.8
20260502090505 49 202 0.0 0.0 0.00 0.00 0.00 84 1011.7
20260502071504 51 225 0.0 3.0 0.00 0.00 0.00 87 1011.8
20260502071004 51 225 0.0 5.0 0.00 0.00 0.00 87 1012.0
20260502070505 51 202 0.0 0.0 0.00 0.00 0.00 87 1012.0
20260502070004 51 202 0.0 0.0 0.00 0.00 0.00 87 1012.0
20260502065004 51 180 0.0 0.0 0.00 0.00 0.00 87 1012.2
20260502064505 51 195 0.0 3.0 0.00 0.00 0.00 87 1012.1
20260502064004 51 225 0.0 0.0 0.00 0.00 0.00 87 1012.1
20260502063504 51 225 0.0 0.0 0.00 0.00 0.00 87 1012.0
20260502062504 51 222 1.0 7.0 0.00 0.00 0.00 87 1011.8
20260502062004 52 206 1.0 5.0 0.00 0.00 0.00 87 1011.8
20260502061505 52 202 2.0 7.0 0.00 0.00 0.00 87 1011.7
20260502061004 52 187 2.0 9.0 0.00 0.00 0.00 87 1011.8
20260502060505 52 188 3.0 9.0 0.00 0.00 0.00 87 1011.9
20260502060004 52 184 5.0 10.0 0.00 0.00 0.00 87 1012.0
20260502055504 52 201 2.0 7.0 0.00 0.00 0.00 87 1012.1
20260502054004 52 202 3.0 10.0 0.00 0.00 0.00 88 1012.1
20260502053004 52 204 1.0 8.0 0.00 0.00 0.00 88 1012.1
20260502052504 51 180 0.0 5.0 0.00 0.00 0.00 89 1012.2
20260502052004 51 194 6.0 9.0 0.00 0.00 0.00 89 1012.3
20260502051504 51 225 1.0 5.0 0.00 0.00 0.00 89 1012.3
20260502051005 51 202 3.0 0.0 0.00 0.00 0.00 90 1012.4
20260502050504 51 202 3.0 0.0 0.00 0.00 0.00 90 1012.4
20260502050004 51 185 1.0 6.0 0.00 0.00 0.00 90 1012.4
20260502045504 51 210 1.0 7.0 0.00 0.00 0.00 90 1012.2
20260502045004 51 193 1.0 7.0 0.00 0.00 0.00 91 1012.4
20260502044504 51 220 2.0 9.0 0.00 0.00 0.00 91 1012.3
20260502044004 51 180 2.0 7.0 0.00 0.00 0.00 91 1012.4
20260502043505 50 191 2.0 12.0 0.00 0.00 0.00 92 1012.2
20260502043004 50 195 1.0 8.0 0.00 0.00 0.00 92 1012.2
20260502042504 50 178 4.0 7.0 0.00 0.00 0.00 92 1012.2
20260502042004 49 180 0.0 5.0 0.00 0.00 0.00 91 1012.7
20260502041504 49 182 2.0 7.0 0.00 0.00 0.00 91 1012.4
20260502041004 49 202 0.0 5.0 0.00 0.00 0.00 91 1012.1
20260502040504 49 195 0.0 0.0 0.00 0.00 0.00 90 1012.3
20260502040005 49 206 0.0 2.0 0.00 0.00 0.00 90 1012.3
20260502035504 48 202 0.0 3.0 0.00 0.00 0.00 90 1012.2
20260502035004 48 202 1.0 5.0 0.00 0.00 0.00 90 1012.2
20260502034504 48 220 0.0 6.0 0.00 0.00 0.00 89 1012.1
20260502034004 47 180 0.0 0.0 0.00 0.00 0.00 89 1011.9
20260502033504 47 180 0.0 0.0 0.00 0.00 0.00 87 1011.8
20260502032004 47 180 0.0 0.0 0.00 0.00 0.00 86 1011.7
20260502031504 47 187 0.0 0.0 0.00 0.00 0.00 85 1012.1
20260502031004 47 202 0.0 0.0 0.00 0.00 0.00 84 1012.2
20260502030504 47 202 0.0 0.0 0.00 0.00 0.00 83 1012.2
20260502024505 48 202 0.0 0.0 0.00 0.00 0.00 81 1012.2
20260502024004 48 225 0.0 0.0 0.00 0.00 0.00 81 1012.1
20260502023504 48 225 0.0 0.0 0.00 0.00 0.00 81 1012.5
20260502023005 48 225 0.0 0.0 0.00 0.00 0.00 80 1012.6
20260502022504 48 225 0.0 0.0 0.00 0.00 0.00 79 1012.6
20260502022004 48 246 0.0 0.0 0.00 0.00 0.00 79 1012.3
20260502021503 48 158 0.0 0.0 0.00 0.00 0.00 78 1012.2
20260502020505 48 158 0.0 0.0 0.00 0.00 0.00 77 1012.6
20260502020004 49 158 0.0 0.0 0.00 0.00 0.00 76 1012.8
20260502015504 49 158 0.0 0.0 0.00 0.00 0.00 75 1012.8
20260502015004 49 158 0.0 0.0 0.00 0.00 0.00 75 1012.8
20260502014504 49 153 0.0 0.0 0.00 0.00 0.00 74 1012.8
20260502014003 49 135 0.0 0.0 0.00 0.00 0.00 74 1012.7
20260502013504 50 219 0.0 0.0 0.00 0.00 0.00 72 1012.5
20260502013004 50 225 0.0 0.0 0.00 0.00 0.00 72 1012.5
20260502012004 51 202 0.0 0.0 0.00 0.00 0.00 71 1012.3
20260502011504 51 192 0.0 3.0 0.00 0.00 0.00 71 1012.3
20260502010504 51 181 0.0 3.0 0.00 0.00 0.00 70 1012.1
20260502010004 51 202 0.0 3.0 0.00 0.00 0.00 69 1012.0
20260502005504 51 202 0.0 0.0 0.00 0.00 0.00 68 1012.1
20260502005003 52 135 0.0 0.0 0.00 0.00 0.00 68 1012.2
20260502004504 52 135 0.0 5.0 0.00 0.00 0.00 68 1012.1
20260502003504 52 202 0.0 0.0 0.00 0.00 0.00 67 1012.0
20260502003004 53 207 0.0 0.0 0.00 0.00 0.00 66 1011.9
20260502002504 53 202 0.0 0.0 0.00 0.00 0.00 65 1011.8
20260502002005 53 202 1.0 3.0 0.00 0.00 0.00 65 1011.9
20260502001504 54 202 0.0 7.0 0.00 0.00 0.00 65 1011.9
20260502001005 54 202 0.0 5.0 0.00 0.00 0.00 64 1011.9
20260502000506 55 180 0.0 0.0 0.00 0.00 0.00 64 1011.9
20260502000006 55 206 2.0 6.0 0.00 0.00 0.00 63 1011.9
20260501235506 55 201 1.0 7.0 0.00 0.00 0.00 62 1011.6
20260501235005 55 202 1.0 7.0 0.00 0.00 0.00 61 1011.7
20260501234505 56 193 1.0 7.0 0.00 0.00 0.00 60 1011.7
20260501233505 57 205 2.0 9.0 0.00 0.00 0.00 59 1011.4
20260501232505 57 195 1.0 7.0 0.00 0.00 0.00 57 1011.5
20260501232005 58 199 2.0 10.0 0.00 0.00 0.00 56 1011.5
20260501231005 58 202 0.0 8.0 0.00 0.00 0.00 55 1011.3